GFSGBSN_700_temp_147.txt.gz
Temp
2 2 3 3 3 2 3 2 2 3 3 3 3 3 3 2 2 3 3 3 3 2 3 3 4 4 5 5 5 5 5 6 6 6 6 6 6 6 6 6 6 6 7 7 7 7 8
2 2 2 2 3 2 2 2 2 3 2 2 2 3 3 3 2 2 2 2 2 3 2 4 4 4 4 5 5 5 5 5 5 5 5 5 6 6 6 6 6 6 6 6 6 6 6
2 2 2 2 2 3 2 3 2 3 3 3 3 3 3 3 3 3 2 2 2 2 2 3 4 4 4 4 5 4 4 5 5 5 5 5 5 5 5 5 5 5 6 6 6 7 7
2 2 2 2 2 2 2 2 3 3 3 3 3 3 3 3 3 2 2 2 1 1 2 2 3 3 4 4 4 5 5 5 5 5 5 5 5 5 5 5 5 5 5 6 6 6 6
2 2 2 2 2 2 2 2 2 2 3 2 2 2 2 2 2 2 2 2 1 1 1 2 2 3 4 4 4 4 5 5 5 5 5 5 5 4 4 4 4 4 5 5 5 5 5
1 1 1 1 1 1 2 2 2 2 2 2 2 2 2 1 1 1 1 1 0 0 0 1 2 2 3 3 4 4 3 4 4 4 4 4 4 5 4 4 4 4 4 4 4 4 4
-0 -0 -0 -0 0 0 1 1 1 1 1 1 1 1 1 1 0 0 0 0 0 0 1 1 0 1 2 2 2 3 3 3 3 4 4 4 4 5 4 4 3 3 3 3 4 3 4
-1 -1 -1 -1 -0 -1 -0 -1 -0 0 0 0 0 0 0 0 -0 -0 -0 -0 0 0 1 1 1 1 1 0 1 2 2 2 2 3 3 3 4 5 3 2 2 2 2 3 3 3 3
-2 -2 -2 -2 -2 -2 -1 -1 -1 -1 -1 -0 -0 -0 -0 -0 -0 -1 -1 -1 -0 -1 -1 2 1 1 1 0 1 2 1 1 2 2 2 2 3 4 3 2 2 2 1 2 2 2 3
-3 -2 -2 -2 -2 -2 -2 -2 -1 -1 -1 -1 -1 -1 -1 -1 -2 -1 -2 -2 -2 -1 -1 1 2 3 2 1 1 1 1 1 1 2 2 1 2 2 2 2 2 1 2 2 2 2 2
-3 -3 -3 -3 -3 -3 -2 -2 -2 -2 -2 -2 -1 -2 -2 -2 -2 -2 -2 -2 -2 -2 -6 1 0 0 0 1 1 0 0 0 1 1 1 2 2 3 2 2 2 1 1 1 1 1 1
-4 -3 -3 -3 -3 -3 -3 -3 -2 -2 -2 -2 -2 -2 -2 -2 -2 -3 -2 -3 -3 -3 -6 -0 -1 -0 -0 1 1 0 0 -1 -1 -1 -1 -0 0 1 1 1 1 1 1 1 1 0 -2
-4 -4 -4 -4 -4 -4 -3 -3 -3 -3 -3 -3 -3 -3 -3 -3 -3 -3 -4 -4 -4 -5 -2 -1 -1 -1 -1 -0 0 -0 -1 -1 -1 -1 -1 -1 -1 0 0 0 0 0 -0 -1 -2 -3 -2
-4 -4 -4 -4 -4 -4 -4 -3 -3 -3 -3 -3 -3 -3 -3 -3 -4 -4 -5 -6 -5 -2 -2 -1 -1 -2 -2 -2 -1 -0 -1 -1 -1 -1 -1 -0 -1 1 1 0 0 0 0 0 -1 -3 -3
-5 -5 -4 -4 -4 -4 -4 -4 -3 -3 -4 -4 -3 -3 -3 -4 -5 -5 -6 -7 -3 -1 -2 -1 -1 -2 -2 -2 -2 -1 -1 -2 -1 -1 -2 -0 -0 1 1 1 0 -0 -0 0 -0 -1 -2
-5 -5 -5 -5 -5 -4 -4 -4 -4 -4 -4 -4 -4 -4 -4 -5 -6 -6 -7 -4 -3 -2 -3 -3 -3 -3 -2 -2 -2 -2 -2 -1 -1 -1 -2 -1 -1 0 1 -0 -0 -0 0 -1 -1 -2 -2
-6 -6 -6 -5 -5 -5 -4 -4 -4 -4 -4 -4 -4 -4 -3 -5 -6 -8 -6 -4 -3 -3 -3 -4 -4 -4 -3 -3 -2 -2 -2 -1 -1 -1 -1 -1 -2 -1 -1 -0 -0 -1 -1 -0 -1 -1 -3
-7 -6 -6 -6 -5 -5 -5 -5 -5 -5 -5 -5 -4 -4 -5 -6 -7 -7 -4 -2 -3 -4 -4 -4 -4 -4 -3 -3 -4 -3 -2 -2 -1 -1 -2 -2 -2 -2 -1 -1 0 -0 -0 -0 -0 -2 -2
-8 -7 -6 -6 -6 -6 -6 -5 -5 -5 -5 -4 -4 -4 -6 -8 -6 -6 -4 -4 -5 -4 -5 -5 -5 -5 -4 -4 -4 -4 -3 -3 -2 -2 -1 -2 -4 -2 -2 -1 -1 -1 -1 -1 -1 -1 -2
-9 -8 -8 -7 -6 -6 -6 -6 -5 -5 -5 -4 -6 -8 -8 -9 -8 -8 -6 -4 -6 -6 -8 -7 -7 -6 -6 -5 -4 -5 -4 -3 -3 -3 -2 -2 -2 -2 -3 -2 -2 -2 -1 -1 -1 -1 -1
-10 -9 -8 -8 -7 -7 -6 -6 -6 -6 -6 -5 -8 -8 -7 -7 -8 -8 -8 -7 -8 -9 -8 -8 -8 -7 -6 -6 -5 -5 -4 -3 -4 -4 -3 -2 -2 -2 -4 -3 -3 -3 -2 -1 -1 -1 -2
-10 -10 -10 -9 -8 -8 -7 -7 -6 -5 -6 -7 -8 -8 -7 -6 -7 -7 -7 -7 -8 -7 -8 -8 -8 -7 -6 -5 -5 -5 -4 -4 -3 -4 -3 -3 -5 -3 -4 -4 -4 -3 -2 -1 -1 -2 -2
-10 -10 -10 -10 -8 -8 -8 -7 -6 -6 -6 -6 -8 -8 -7 -7 -7 -7 -7 -6 -6 -7 -7 -7 -7 -7 -6 -5 -5 -4 -5 -4 -4 -4 -3 -3 -5 -5 -5 -5 -4 -3 -2 -2 -2 -2 -3
-10 -10 -10 -10 -9 -9 -8 -7 -6 -6 -6 -6 -7 -8 -8 -7 -7 -5 -5 -6 -6 -7 -6 -6 -7 -7 -6 -5 -5 -5 -5 -5 -4 -5 -5 -5 -5 -6 -5 -4 -5 -3 -2 -3 -3 -3 -3
-10 -10 -10 -10 -10 -9 -8 -7 -6 -7 -7 -7 -8 -8 -8 -7 -6 -6 -6 -7 -7 -7 -6 -7 -7 -6 -5 -6 -5 -5 -6 -5 -5 -5 -5 -6 -6 -6 -5 -5 -5 -3 -2 -2 -3 -3 -3
-10 -10 -10 -10 -10 -9 -8 -7 -7 -8 -7 -8 -8 -8 -8 -7 -6 -7 -7 -7 -6 -6 -7 -6 -6 -6 -6 -6 -6 -6 -6 -6 -6 -6 -6 -6 -6 -5 -4 -4 -5 -3 -3 -3 -4 -4 -3
-10 -10 -10 -10 -10 -10 -9 -8 -8 -8 -8 -8 -8 -8 -8 -8 -6 -6 -6 -7 -7 -6 -6 -6 -6 -6 -6 -6 -6 -6 -6 -5 -6 -6 -6 -6 -5 -5 -5 -4 -4 -4 -3 -4 -5 -3 -3
-11 -10 -10 -10 -10 -10 -9 -9 -8 -8 -9 -8 -8 -8 -9 -8 -6 -7 -6 -7 -7 -7 -6 -6 -6 -6 -6 -6 -6 -6 -6 -6 -5 -5 -4 -5 -5 -5 -5 -4 -4 -4 -4 -4 -3 -4 -4
-10 -10 -10 -10 -10 -10 -9 -9 -10 -10 -9 -9 -8 -9 -8 -8 -7 -7 -7 -6 -6 -7 -6 -6 -6 -6 -6 -6 -6 -6 -6 -6 -5 -5 -5 -5 -5 -4 -4 -4 -4 -3 -4 -4 -4 -4 -4

GFSGBSN_700_temp_150.txt.gz
Temp
2 1 2 2 2 2 2 3 3 3 3 4 3 3 3 3 3 3 3 3 3 3 3 3 4 4 5 5 5 5 5 5 6 6 6 6 6 6 6 6 6 6 6 6 6 6 6
1 1 1 1 2 2 2 2 2 2 3 3 3 3 3 3 3 3 3 3 2 3 3 3 3 4 4 4 5 5 5 4 5 5 5 5 6 6 6 6 6 6 6 6 6 6 6
1 1 1 1 1 2 2 2 2 2 2 2 2 3 3 3 3 3 4 3 3 3 3 3 3 4 3 4 4 4 4 4 4 4 5 5 5 5 5 5 6 6 6 6 6 6 6
-0 0 -0 1 1 1 1 2 2 2 2 2 3 3 3 3 3 3 4 4 4 3 4 3 3 3 4 4 3 4 4 4 5 4 5 5 5 5 5 5 5 5 6 6 6 6 6
0 1 0 1 2 2 2 2 2 2 2 2 3 3 3 3 3 3 3 3 4 4 4 3 3 2 4 4 4 3 4 4 4 4 5 5 5 5 5 5 5 5 5 5 5 5 5
0 0 0 1 1 1 1 2 2 2 2 2 2 2 2 2 2 2 2 3 3 3 4 3 2 2 3 3 3 3 3 4 4 4 4 4 4 5 5 5 5 5 5 5 5 4 4
-1 -0 0 0 0 1 1 1 1 1 1 1 1 1 1 2 2 2 2 1 2 2 3 3 2 2 1 3 2 2 3 3 3 3 3 3 3 5 5 4 4 3 4 4 4 4 4
-1 -1 -1 -1 -0 0 0 1 0 0 0 1 0 0 1 0 1 1 1 1 1 2 2 3 3 3 2 2 2 2 1 2 2 2 2 3 3 4 3 4 4 3 3 4 4 3 3
-2 -2 -2 -2 -1 -1 -1 -1 -1 -0 -0 -1 -0 -0 -0 -0 0 0 0 0 1 1 1 3 3 3 3 2 2 2 1 1 1 1 1 2 2 3 3 3 2 3 2 3 3 2 2
-2 -2 -2 -2 -2 -2 -2 -2 -1 -1 -1 -1 -1 -1 -1 -1 -1 -1 -1 -0 -0 -0 -0 1 2 2 2 2 2 2 1 1 0 0 1 1 1 2 1 2 2 2 2 2 2 1 1
-3 -3 -3 -2 -2 -2 -2 -2 -2 -2 -2 -2 -2 -2 -1 -2 -1 -1 -1 -1 -1 -2 -6 0 -0 0 0 1 1 1 1 0 0 1 0 1 0 1 1 1 1 1 1 1 1 1 1
-4 -4 -3 -3 -3 -3 -3 -2 -2 -2 -2 -2 -2 -2 -2 -2 -2 -2 -2 -2 -2 -2 -5 -1 -1 -0 0 1 1 0 -0 -0 -0 -1 -1 -0 -0 -0 0 1 1 1 1 1 1 0 -2
-4 -4 -4 -3 -3 -3 -3 -3 -3 -3 -3 -3 -3 -3 -3 -3 -2 -2 -2 -2 -3 -3 -1 -1 -1 -1 -1 -1 -0 -0 -1 -1 -1 -1 -1 0 0 0 -1 -0 0 0 -0 -1 -2 -2 -3
-5 -5 -4 -4 -3 -3 -3 -4 -4 -4 -4 -3 -3 -3 -3 -3 -3 -3 -3 -3 -3 -2 -1 -1 -2 -2 -2 -2 -1 -1 -1 -1 -1 -1 -1 -1 -0 1 1 0 0 -0 0 0 -2 -3 -3
-6 -5 -5 -4 -4 -4 -4 -4 -4 -4 -4 -4 -4 -3 -3 -3 -4 -4 -4 -4 -2 -2 -2 -2 -1 -2 -2 -2 -2 -2 -1 -2 -1 -2 -2 -2 -1 -0 1 0 -0 -0 -0 0 -0 -2 -2
-7 -6 -5 -5 -5 -5 -5 -5 -5 -5 -5 -5 -4 -4 -4 -4 -4 -4 -5 -4 -3 -3 -3 -3 -3 -2 -2 -2 -2 -2 -2 -2 -1 -1 -2 -2 -2 -1 -1 -0 -1 -1 -0 -1 -1 -2 -3
-9 -7 -6 -6 -5 -5 -5 -5 -5 -5 -5 -5 -5 -5 -5 -5 -5 -5 -5 -3 -3 -3 -3 -4 -4 -4 -3 -3 -3 -3 -3 -2 -2 -2 -2 -2 -2 -2 -1 -1 -1 -1 -1 -1 -1 -0 -2
-10 -9 -8 -7 -6 -5 -6 -5 -6 -6 -6 -6 -5 -5 -6 -6 -6 -6 -4 -3 -4 -3 -4 -4 -4 -4 -5 -4 -4 -4 -3 -3 -2 -2 -2 -2 -3 -3 -2 -2 -2 -2 -1 -1 -1 -2 -1
-10 -9 -9 -7 -6 -6 -6 -6 -6 -6 -6 -6 -6 -5 -7 -7 -6 -5 -4 -4 -4 -5 -6 -5 -5 -5 -5 -5 -5 -4 -4 -3 -3 -3 -3 -3 -5 -4 -4 -3 -2 -3 -2 -1 -1 -1 -2
-9 -9 -9 -8 -7 -6 -6 -6 -6 -6 -6 -6 -7 -8 -9 -8 -6 -6 -5 -4 -5 -5 -5 -6 -6 -7 -7 -7 -6 -5 -5 -4 -4 -3 -3 -3 -3 -3 -4 -2 -3 -2 -3 -3 -3 -3 -3
-9 -10 -9 -9 -9 -7 -7 -7 -7 -7 -7 -6 -8 -8 -7 -7 -7 -5 -7 -5 -5 -6 -6 -7 -6 -7 -8 -7 -7 -6 -6 -5 -5 -4 -3 -3 -3 -3 -3 -3 -3 -3 -4 -4 -4 -4 -2
-9 -9 -9 -10 -10 -8 -7 -7 -7 -7 -7 -7 -8 -7 -8 -7 -8 -8 -8 -6 -5 -7 -7 -6 -6 -5 -7 -8 -7 -7 -6 -6 -5 -5 -4 -4 -4 -5 -4 -4 -4 -4 -4 -4 -4 -3 -3
-9 -9 -9 -9 -10 -9 -8 -7 -7 -7 -7 -7 -9 -8 -8 -8 -8 -8 -8 -6 -6 -7 -7 -6 -6 -7 -7 -7 -7 -7 -7 -6 -6 -5 -5 -5 -5 -5 -5 -5 -5 -5 -4 -3 -3 -3 -3
-9 -9 -9 -9 -10 -10 -9 -8 -8 -7 -7 -7 -7 -9 -9 -9 -8 -8 -7 -7 -7 -7 -7 -6 -7 -8 -5 -7 -8 -7 -7 -6 -6 -5 -5 -5 -5 -5 -5 -5 -5 -3 -3 -3 -3 -3 -3
-9 -10 -10 -10 -10 -10 -10 -9 -8 -8 -7 -7 -8 -8 -9 -9 -9 -8 -7 -7 -7 -7 -7 -7 -7 -6 -7 -7 -7 -8 -6 -6 -6 -6 -6 -5 -6 -5 -5 -5 -5 -4 -3 -3 -3 -3 -3
-10 -10 -10 -10 -10 -10 -10 -10 -8 -8 -8 -8 -8 -8 -10 -8 -9 -7 -7 -7 -8 -8 -7 -6 -6 -6 -7 -7 -7 -6 -6 -5 -5 -6 -6 -6 -6 -6 -6 -6 -5 -3 -3 -3 -3 -4 -3
-10 -10 -10 -10 -10 -10 -10 -10 -9 -8 -9 -8 -8 -9 -9 -9 -8 -7 -7 -7 -7 -7 -7 -6 -6 -7 -7 -6 -6 -6 -6 -6 -6 -6 -6 -6 -6 -6 -6 -6 -5 -4 -4 -3 -4 -3 -2
-10 -10 -10 -10 -10 -10 -10 -10 -9 -9 -9 -9 -8 -9 -9 -9 -8 -7 -7 -7 -7 -7 -7 -6 -7 -7 -7 -7 -6 -6 -6 -6 -6 -6 -5 -5 -7 -6 -6 -6 -5 -3 -3 -4 -3 -3 -3
-10 -10 -10 -10 -10 -10 -10 -10 -10 -9 -9 -10 -9 -9 -9 -9 -9 -7 -7 -7 -7 -7 -7 -7 -6 -6 -6 -7 -6 -6 -6 -6 -6 -6 -6 -6 -5 -5 -5 -5 -4 -3 -3 -3 -3 -4 -4

GFSGBSN_700_temp_153.txt.gz
Temp
2 2 2 2 2 2 2 2 2 3 2 2 2 3 3 2 3 3 3 3 4 4 4 4 4 4 4 4 5 4 4 5 5 6 6 6 6 6 6 7 7 7 7 7 6 6 6
2 2 1 2 2 2 2 2 2 2 3 3 3 3 3 3 3 3 3 3 4 4 4 4 4 4 4 4 4 4 4 4 4 5 5 5 5 5 6 6 6 6 6 6 6 6 6
1 1 1 1 1 1 1 1 1 1 2 2 2 2 3 3 3 3 3 4 4 4 5 4 4 4 4 4 3 3 4 4 4 5 5 5 5 5 5 5 6 6 6 6 6 5 5
0 -0 1 0 0 0 1 0 1 1 1 1 2 2 2 3 3 3 3 4 4 4 4 4 5 5 4 4 4 3 3 4 4 4 4 5 4 5 5 5 5 5 6 5 5 6 5
-1 -0 0 -0 -0 -0 -0 0 0 1 1 1 2 3 2 2 3 3 3 3 3 3 4 4 5 4 5 5 4 4 3 3 4 4 4 4 4 5 5 4 4 5 5 5 5 5 5
-1 -0 0 0 0 0 0 0 0 1 1 2 2 2 2 2 2 2 3 3 3 3 3 4 4 4 4 4 4 3 2 3 3 3 3 4 4 4 5 4 4 5 5 5 5 5 4
-0 -0 -0 -0 0 -0 0 1 1 1 1 1 1 2 2 2 2 2 2 2 2 2 3 3 3 3 3 3 3 3 2 2 2 2 2 3 3 4 3 3 3 3 4 4 4 4 4
-1 -1 -0 -0 -0 -0 0 0 0 1 1 1 1 1 1 1 2 2 1 2 2 2 2 1 2 3 3 2 2 3 2 2 2 2 2 2 2 2 3 2 2 2 2 3 3 3 3
-2 -2 -2 -1 -1 -1 -1 -1 -0 -0 0 0 0 0 0 1 1 1 1 1 1 1 1 3 3 3 3 2 3 3 3 2 2 2 2 2 2 2 2 2 2 2 2 3 2 2 2
-2 -2 -2 -2 -2 -2 -2 -1 -1 -1 -0 -0 -0 -0 -0 0 0 0 0 0 0 -0 0 1 1 2 1 2 2 2 2 2 1 1 1 1 1 1 2 2 2 2 2 2 1 1 1
-3 -3 -2 -2 -2 -2 -2 -2 -2 -1 -1 -1 -1 -1 -1 -1 -0 -1 -1 -1 -1 -1 -2 -0 -0 0 1 1 1 1 2 1 -0 -0 -0 0 -0 0 1 1 2 2 2 1 1 1 1
-3 -3 -3 -3 -3 -3 -3 -2 -2 -2 -2 -2 -2 -2 -2 -1 -1 -1 -1 -1 -1 -1 -3 -1 -0 -0 0 1 1 1 1 1 0 -1 -1 -1 -1 -1 -0 -0 0 1 0 1 1 1 0
-3 -3 -3 -3 -3 -3 -3 -3 -3 -3 -3 -2 -2 -2 -2 -2 -2 -2 -2 -2 -2 -2 -1 -1 -1 -1 -1 -0 -0 0 -0 -0 0 -0 -1 -1 -0 -0 -1 -1 -1 0 -0 0 -0 -1 1
-7 -4 -4 -3 -3 -3 -3 -3 -3 -4 -3 -3 -3 -3 -3 -3 -2 -2 -2 -3 -3 -2 -1 -1 -2 -2 -1 -1 -1 -1 -1 -1 -1 -1 -2 -2 -1 -0 0 0 -1 -1 -0 1 0 -0 1
-6 -7 -6 -5 -4 -4 -4 -4 -4 -4 -4 -3 -3 -3 -3 -3 -3 -3 -3 -3 -2 -2 -2 -2 -2 -2 -2 -2 -2 -2 -2 -2 -1 -2 -2 -2 -1 -1 -1 -1 -1 -1 -1 -0 0 -1 -2
-7 -7 -7 -5 -5 -5 -4 -4 -4 -4 -4 -4 -4 -4 -4 -4 -4 -4 -4 -4 -4 -3 -3 -3 -2 -2 -2 -3 -3 -3 -3 -2 -2 -2 -2 -2 -2 -2 -2 -1 -1 -1 -1 -1 -1 -3 -2
-7 -7 -8 -8 -6 -6 -5 -5 -5 -5 -5 -5 -4 -4 -5 -5 -4 -5 -5 -5 -4 -4 -4 -4 -4 -4 -4 -4 -3 -4 -4 -3 -3 -2 -2 -2 -3 -2 -2 -2 -1 -1 -2 -2 -1 -2 -1
-7 -8 -8 -9 -8 -8 -6 -6 -6 -6 -5 -5 -5 -5 -5 -5 -5 -5 -5 -5 -5 -5 -5 -5 -5 -5 -3 -4 -5 -5 -4 -4 -3 -3 -3 -3 -3 -3 -3 -2 -3 -3 -2 -2 -2 -3 -3
-8 -8 -8 -9 -9 -9 -8 -7 -7 -6 -6 -5 -5 -6 -6 -6 -6 -5 -5 -5 -6 -5 -6 -6 -5 -4 -5 -6 -6 -5 -5 -4 -4 -4 -4 -4 -4 -4 -3 -2 -2 -2 -2 -3 -2 -3 -4
-8 -8 -8 -9 -9 -9 -7 -7 -7 -7 -6 -6 -6 -6 -7 -7 -6 -5 -6 -6 -6 -6 -5 -5 -5 -5 -6 -6 -7 -6 -6 -5 -5 -5 -4 -5 -5 -5 -4 -3 -3 -3 -3 -3 -4 -4 -4
-8 -8 -8 -9 -10 -10 -8 -8 -7 -7 -6 -6 -6 -6 -6 -6 -6 -5 -6 -7 -6 -6 -6 -6 -5 -5 -6 -7 -8 -7 -6 -7 -6 -6 -5 -5 -5 -4 -4 -4 -4 -4 -3 -3 -4 -4 -5
-8 -8 -8 -9 -9 -10 -10 -8 -7 -7 -7 -7 -7 -7 -7 -6 -6 -7 -8 -8 -6 -6 -6 -6 -6 -6 -7 -8 -6 -7 -8 -8 -7 -6 -6 -6 -5 -5 -4 -4 -4 -5 -4 -4 -4 -4 -5
-8 -8 -8 -9 -9 -10 -10 -9 -8 -8 -8 -7 -8 -7 -7 -7 -8 -8 -6 -5 -6 -7 -7 -7 -7 -7 -8 -5 -7 -8 -8 -8 -8 -7 -6 -6 -6 -5 -5 -5 -5 -5 -4 -3 -3 -3 -3
-8 -8 -9 -9 -9 -10 -9 -9 -8 -8 -7 -8 -9 -9 -9 -9 -9 -8 -6 -7 -8 -8 -8 -8 -8 -8 -5 -7 -8 -8 -8 -7 -7 -7 -7 -7 -6 -6 -5 -5 -4 -3 -3 -3 -3 -3 -3
-9 -9 -9 -9 -10 -10 -10 -9 -9 -8 -8 -8 -8 -10 -9 -10 -9 -9 -8 -9 -8 -8 -8 -8 -6 -7 -8 -8 -8 -8 -7 -7 -6 -6 -6 -6 -6 -6 -6 -5 -4 -4 -3 -3 -3 -3 -3
-8 -9 -9 -9 -10 -10 -10 -9 -9 -9 -9 -8 -8 -9 -9 -10 -8 -8 -9 -8 -8 -8 -8 -7 -7 -7 -7 -7 -7 -8 -7 -6 -6 -6 -5 -6 -6 -6 -6 -5 -4 -3 -4 -3 -3 -3 -3
-9 -9 -9 -9 -9 -10 -10 -10 -10 -9 -9 -9 -8 -8 -9 -10 -8 -8 -9 -8 -8 -8 -7 -7 -7 -7 -7 -7 -7 -7 -7 -6 -5 -5 -6 -6 -6 -6 -6 -6 -6 -4 -4 -4 -4 -3 -3
-9 -9 -9 -9 -10 -10 -10 -10 -10 -10 -9 -9 -8 -9 -9 -9 -7 -8 -8 -8 -9 -8 -7 -7 -7 -7 -7 -8 -7 -7 -6 -6 -6 -5 -5 -5 -6 -6 -6 -6 -6 -4 -4 -4 -3 -3 -3
-9 -10 -10 -10 -10 -10 -10 -10 -10 -10 -11 -10 -9 -10 -9 -11 -8 -9 -8 -8 -8 -8 -7 -7 -7 -6 -6 -7 -7 -6 -6 -6 -5 -6 -5 -6 -5 -5 -5 -4 -4 -4 -3 -4 -4 -4 -3

GFSGBSN_700_temp_156.txt.gz
Temp
2 2 2 2 2 2 2 2 2 2 2 2 3 3 3 3 3 4 4 4 4 4 4 5 4 4 4 4 4 4 5 5 5 6 6 5 6 6 6 7 7 7 7 7 6 6 6
1 1 2 2 2 2 2 2 2 2 2 2 2 3 3 3 3 4 4 4 4 4 4 5 5 4 4 3 4 4 5 5 5 5 5 5 5 6 6 6 6 7 6 6 6 6 6
1 1 1 1 2 1 1 1 1 1 1 1 2 2 2 2 3 4 4 4 4 5 4 4 5 5 5 4 4 4 4 4 5 5 5 5 5 5 5 5 6 6 6 5 6 6 6
1 1 1 1 0 0 0 0 1 1 2 1 1 1 2 3 3 3 4 4 5 4 5 4 4 4 5 5 4 3 3 4 4 5 5 5 5 5 5 5 5 5 5 6 5 6 6
0 0 0 0 0 0 -0 1 1 1 1 1 2 2 1 2 2 3 3 4 4 4 4 4 4 4 5 5 5 4 3 4 4 4 4 5 5 5 5 4 4 5 6 6 5 5 4
-1 -1 -1 -0 -0 -0 -0 -0 0 1 1 1 0 1 2 2 2 2 3 3 3 4 4 4 4 4 5 5 4 4 4 4 3 3 3 4 4 4 4 4 6 5 5 5 5 4 4
-1 -1 -2 -1 -1 -2 -2 -1 -0 1 1 1 1 1 2 2 2 2 2 2 3 3 3 3 3 4 3 3 3 3 4 4 3 3 3 3 3 4 3 3 3 4 3 4 4 3 3
-1 -1 -1 -1 -1 -1 -1 -2 -0 0 0 0 1 1 1 2 2 2 2 2 2 2 2 3 3 3 3 3 3 3 3 3 3 2 3 3 3 3 3 3 3 3 2 3 3 3 3
-1 -1 -1 -0 -1 -1 -0 -0 0 0 0 0 1 1 1 1 1 2 1 2 1 1 1 3 3 3 3 3 3 4 3 2 1 1 2 2 3 2 2 2 2 2 3 3 3 2 2
-2 -2 -2 -1 -1 -1 -0 -0 -0 0 0 0 -0 0 0 0 0 1 1 1 1 0 1 1 2 2 2 2 2 2 2 1 0 0 0 0 1 2 2 1 1 3 2 2 2 2 4
-3 -3 -2 -2 -2 -1 -1 -1 -0 0 -0 -0 -0 -0 -0 -0 0 0 -0 0 -0 -0 1 1 0 1 1 2 1 1 2 1 1 -1 -0 1 0 0 1 1 1 2 1 1 2 2 3
-3 -3 -3 -3 -3 -2 -2 -2 -1 -1 -1 -1 -1 -1 -1 -1 -1 -1 -1 -1 -1 -1 -0 0 0 0 1 1 1 1 1 1 0 -1 -1 -0 -1 -1 -0 -0 -0 -0 0 0 1 2 3
-6 -5 -4 -3 -3 -3 -2 -2 -2 -2 -2 -2 -2 -1 -1 -1 -1 -1 -2 -1 -2 -1 -1 -1 -1 -0 0 0 0 -0 -0 0 -0 -0 -0 -1 -0 -0 -1 -1 -1 -1 -0 2 3 2 3
-6 -6 -6 -5 -4 -3 -3 -3 -3 -3 -3 -2 -2 -2 -2 -2 -2 -2 -2 -2 -3 -2 -1 -0 -1 -1 -1 -1 -1 -1 -1 -1 -1 -1 -0 0 1 -0 -1 -0 -0 -0 -0 1 2 4 5
-6 -6 -6 -6 -6 -5 -4 -4 -4 -3 -4 -4 -3 -3 -3 -3 -3 -3 -3 -3 -2 -3 -1 -1 -1 -2 -2 -2 -2 -2 -2 -1 -1 -2 -1 -0 -0 -1 -1 -1 -1 -0 -1 0 0 1 1
-6 -6 -6 -7 -6 -5 -5 -4 -4 -4 -4 -4 -4 -4 -4 -3 -3 -4 -4 -4 -3 -3 -2 -2 -2 -2 -2 -3 -3 -3 -2 -2 -2 -2 -2 -1 -1 -1 -1 -1 -1 -1 -0 -0 -1 -1 0
-7 -7 -6 -7 -7 -6 -5 -5 -5 -4 -5 -5 -4 -5 -4 -4 -4 -4 -5 -5 -4 -4 -3 -3 -3 -3 -3 -3 -3 -3 -3 -3 -3 -2 -2 -2 -2 -1 -2 -1 -0 -0 -1 -1 -1 -2 1
-7 -7 -7 -7 -7 -7 -6 -5 -6 -6 -6 -5 -5 -5 -5 -5 -5 -5 -5 -7 -4 -4 -4 -4 -3 -3 -5 -4 -4 -4 -3 -3 -3 -3 -3 -3 -3 -2 -1 -1 -2 -2 -1 -1 -1 -2 -1
-8 -7 -7 -7 -8 -7 -7 -6 -6 -6 -6 -5 -5 -5 -5 -5 -6 -5 -6 -5 -5 -4 -5 -4 -4 -4 -5 -6 -5 -5 -4 -4 -5 -4 -4 -3 -3 -3 -2 -1 -2 -2 -1 -2 -2 -2 -2
-8 -7 -7 -7 -8 -7 -8 -7 -6 -7 -8 -7 -6 -7 -6 -6 -6 -7 -8 -6 -5 -4 -4 -4 -6 -6 -6 -6 -6 -6 -5 -6 -6 -6 -5 -5 -4 -4 -3 -1 -2 -2 -2 -2 -2 -4 -3
-8 -7 -7 -7 -8 -7 -7 -7 -8 -7 -7 -7 -7 -7 -6 -5 -6 -6 -6 -5 -5 -5 -5 -5 -6 -5 -6 -7 -7 -6 -6 -6 -6 -7 -6 -6 -5 -4 -3 -3 -3 -3 -3 -2 -3 -3 -4
-9 -8 -8 -8 -8 -8 -8 -7 -8 -8 -8 -7 -7 -6 -6 -5 -5 -6 -6 -6 -5 -5 -7 -6 -6 -6 -7 -8 -6 -6 -6 -7 -7 -6 -6 -6 -5 -4 -4 -3 -3 -4 -3 -3 -3 -3 -3
-9 -9 -8 -8 -8 -8 -8 -8 -7 -8 -8 -7 -7 -6 -6 -6 -6 -6 -5 -5 -5 -6 -8 -6 -7 -8 -8 -5 -8 -8 -8 -8 -8 -7 -6 -7 -6 -5 -4 -3 -4 -5 -3 -2 -3 -3 -3
-9 -9 -8 -8 -8 -8 -9 -9 -8 -8 -7 -7 -6 -6 -6 -8 -7 -6 -6 -6 -6 -6 -9 -9 -8 -8 -6 -7 -8 -7 -7 -7 -7 -8 -7 -7 -6 -6 -5 -4 -4 -2 -2 -2 -3 -3 -3
-9 -9 -8 -8 -8 -9 -9 -9 -8 -8 -8 -7 -7 -7 -7 -9 -9 -9 -9 -9 -9 -9 -9 -7 -6 -7 -8 -8 -8 -7 -7 -8 -8 -8 -7 -7 -6 -6 -5 -3 -3 -2 -2 -3 -3 -3 -3
-8 -8 -8 -8 -8 -9 -9 -9 -9 -9 -8 -9 -8 -9 -9 -9 -9 -9 -9 -9 -9 -9 -9 -7 -7 -7 -7 -8 -8 -7 -5 -5 -5 -6 -6 -6 -6 -6 -5 -4 -2 -2 -3 -3 -3 -4 -3
-9 -8 -8 -8 -9 -9 -9 -9 -9 -9 -9 -9 -10 -9 -9 -10 -8 -8 -7 -8 -9 -8 -8 -8 -7 -7 -7 -7 -7 -6 -5 -6 -5 -5 -6 -6 -6 -6 -5 -5 -4 -4 -4 -4 -4 -2 -3
-8 -8 -8 -9 -9 -9 -10 -9 -9 -9 -10 -10 -10 -9 -9 -9 -8 -8 -8 -8 -8 -9 -8 -7 -7 -7 -7 -7 -7 -6 -6 -5 -5 -4 -5 -5 -5 -5 -5 -5 -4 -4 -4 -4 -4 -3 -3
-8 -9 -9 -9 -9 -10 -9 -10 -10 -10 -10 -10 -10 -10 -10 -10 -8 -8 -8 -7 -7 -8 -8 -7 -7 -7 -7 -7 -7 -6 -6 -6 -5 -4 -5 -5 -5 -5 -5 -4 -4 -5 -4 -4 -4 -4 -4

GFSGBSN_700_temp_159.txt.gz
Temp
2 2 2 2 3 3 3 3 3 3 3 3 3 3 3 3 4 4 4 4 4 4 4 5 6 6 6 4 3 5 5 5 6 6 6 6 6 6 7 7 7 7 7 7 6 7 7
2 1 1 2 2 2 2 2 2 2 2 2 2 3 3 3 3 4 4 4 4 4 5 5 5 6 6 5 5 4 5 5 5 6 5 5 6 6 6 6 6 6 7 7 6 6 6
1 1 0 1 1 1 2 2 2 2 2 2 2 2 2 3 3 3 4 4 4 4 4 5 5 5 5 5 5 5 5 5 5 5 5 6 5 5 5 5 6 6 7 6 6 6 6
2 2 1 1 1 1 1 2 2 2 2 1 2 1 1 2 3 3 3 4 4 4 5 5 5 5 5 6 5 6 5 5 5 5 5 5 5 5 5 5 6 6 6 7 8 7 6
1 1 1 1 0 1 0 0 1 1 0 1 1 1 1 2 2 2 2 3 4 4 4 5 5 5 4 6 5 5 5 5 4 5 5 5 5 5 6 5 6 7 7 8 8 7 6
0 0 0 -0 0 1 1 1 1 0 1 1 0 0 1 1 2 1 2 2 3 3 4 4 4 5 4 3 4 5 5 5 4 5 5 4 4 5 5 6 8 8 8 8 8 7 5
-1 -1 -1 -1 -1 -0 -0 -1 -1 -0 0 -0 0 1 1 1 1 1 2 2 3 3 4 3 2 4 3 4 3 4 4 4 4 4 3 3 4 5 7 7 6 5 6 7 7 6 5
-1 -2 -2 -2 -1 -1 -2 -2 -1 -1 -1 -3 -1 1 1 1 1 1 2 2 2 2 2 4 4 4 3 4 4 4 4 3 2 3 4 3 4 6 5 4 4 4 5 6 6 6 4
-1 -1 -1 -1 -0 -0 0 0 -1 -1 -1 -1 -1 0 1 1 1 1 1 2 2 1 1 3 4 3 3 3 4 4 1 2 2 2 4 4 5 4 4 4 4 4 5 5 6 6 4
-3 -2 -2 -1 -1 -0 -0 -0 -1 -1 -0 -0 -0 0 1 1 1 1 1 1 1 1 0 1 3 2 3 3 2 3 1 1 1 1 2 3 3 3 2 3 3 4 5 5 5 5 6
-5 -4 -3 -3 -2 -1 -1 -0 -0 -0 -0 -0 -0 0 1 0 1 0 1 0 0 -0 1 1 1 2 2 2 1 1 2 1 0 1 0 2 1 1 2 3 3 3 3 3 4 4 5
-5 -6 -4 -3 -3 -2 -2 -1 -1 -1 -1 -0 -0 -0 -0 -0 -0 0 -0 -0 -1 -1 1 0 0 1 1 1 0 1 1 1 -0 -0 0 1 1 1 1 2 2 1 1 2 2 3 4
-6 -6 -5 -5 -4 -3 -3 -3 -2 -2 -1 -2 -2 -1 -1 -1 -1 -1 -1 -2 -2 -1 1 0 -0 1 -0 -1 -1 -0 -0 0 1 1 2 2 2 1 0 1 1 1 1 3 4 4 5
-6 -5 -6 -5 -4 -4 -4 -3 -3 -3 -3 -3 -2 -2 -2 -1 -2 -2 -2 -3 -2 1 1 -0 -1 -1 -0 -0 0 0 0 1 1 1 1 3 3 2 1 1 2 2 2 3 3 5 6
-6 -6 -6 -6 -5 -4 -4 -4 -4 -4 -4 -4 -3 -3 -3 -3 -3 -3 -3 -4 -1 -0 -0 -1 -1 -0 -0 -1 -0 -1 -0 1 1 1 1 2 2 2 0 1 1 2 2 2 2 3 3
-7 -6 -6 -6 -6 -6 -5 -4 -4 -5 -5 -5 -4 -4 -4 -4 -4 -4 -4 -4 -2 -2 -2 -1 -0 -0 0 -0 -1 -1 -0 -0 -0 -0 -0 1 1 1 1 1 1 1 1 2 2 2 2
-7 -7 -7 -6 -6 -6 -6 -5 -5 -5 -5 -5 -5 -5 -4 -5 -5 -5 -4 -5 -4 -3 -2 -2 -1 -1 -0 -0 -1 -1 -1 -1 -1 -1 -1 -0 -0 0 1 1 1 2 2 1 1 2 3
-7 -7 -7 -7 -6 -6 -7 -7 -6 -6 -6 -6 -6 -6 -5 -5 -6 -6 -6 -5 -5 -5 -3 -2 -2 -2 -2 -2 -2 -1 -1 -1 -2 -2 -1 -1 -1 -1 0 1 1 1 1 1 2 1 1
-7 -7 -7 -7 -7 -6 -7 -7 -7 -6 -6 -5 -6 -7 -6 -6 -8 -7 -6 -6 -7 -6 -5 -4 -4 -4 -3 -3 -3 -3 -2 -2 -3 -3 -2 -2 -1 -1 -0 0 0 0 0 0 0 0 0
-7 -7 -7 -7 -7 -6 -7 -7 -7 -7 -7 -7 -6 -7 -7 -7 -6 -6 -6 -6 -7 -5 -6 -6 -5 -5 -4 -4 -4 -4 -3 -3 -4 -4 -4 -4 -3 -3 -2 -1 -0 -0 -0 -0 -0 -1 -1
-9 -7 -8 -8 -8 -7 -7 -7 -7 -7 -7 -7 -6 -6 -5 -6 -6 -8 -6 -6 -6 -7 -4 -5 -6 -5 -5 -5 -4 -4 -4 -4 -4 -5 -5 -5 -5 -3 -3 -2 -2 -1 -1 -0 -0 -0 -0
-12 -10 -9 -8 -8 -8 -7 -7 -8 -8 -8 -7 -7 -7 -7 -7 -6 -6 -7 -6 -6 -6 -5 -4 -5 -5 -5 -5 -5 -4 -4 -5 -5 -5 -4 -5 -5 -4 -3 -2 -2 -1 -1 -1 -1 -0 -0
-12 -11 -10 -9 -8 -8 -7 -7 -8 -7 -8 -7 -7 -8 -8 -7 -6 -6 -7 -7 -7 -7 -7 -6 -6 -6 -6 -6 -6 -6 -6 -7 -7 -6 -5 -4 -5 -5 -4 -2 -2 -2 -2 -2 -1 -1 -1
-12 -11 -11 -9 -9 -8 -8 -8 -7 -8 -9 -8 -7 -8 -8 -8 -7 -5 -7 -8 -7 -6 -7 -7 -7 -7 -7 -7 -7 -7 -7 -7 -7 -7 -7 -6 -5 -5 -4 -3 -3 -2 -2 -2 -2 -2 -2
-12 -12 -11 -10 -9 -8 -8 -8 -7 -8 -9 -8 -7 -8 -9 -8 -8 -8 -8 -8 -7 -7 -7 -8 -7 -7 -7 -7 -7 -7 -6 -6 -6 -6 -7 -7 -6 -5 -5 -3 -2 -1 -1 -2 -3 -2 -2
-12 -12 -11 -11 -9 -8 -8 -8 -8 -9 -9 -9 -8 -7 -8 -8 -8 -7 -8 -8 -8 -8 -8 -7 -7 -8 -8 -7 -7 -7 -5 -4 -3 -4 -5 -6 -6 -5 -4 -3 -2 -1 -2 -2 -2 -3 -3
-11 -11 -11 -9 -8 -8 -8 -9 -9 -9 -10 -9 -9 -8 -8 -8 -8 -8 -8 -8 -8 -8 -7 -7 -7 -7 -7 -7 -7 -6 -5 -4 -3 -4 -5 -5 -5 -5 -5 -4 -3 -2 -2 -4 -3 -2 -3
-12 -11 -9 -9 -8 -8 -8 -9 -10 -9 -9 -9 -9 -9 -9 -9 -8 -8 -9 -9 -9 -9 -8 -7 -7 -7 -7 -8 -7 -6 -4 -4 -4 -3 -5 -4 -5 -5 -5 -4 -3 -3 -4 -4 -4 -3 -4
-10 -9 -9 -8 -8 -9 -9 -10 -10 -10 -10 -10 -9 -9 -9 -9 -10 -9 -8 -7 -9 -8 -7 -8 -7 -6 -7 -7 -6 -5 -5 -5 -4 -3 -3 -4 -3 -3 -4 -3 -4 -4 -4 -4 -4 -4 -4

GFSGBSN_700_temp_165.txt.gz
Temp
2 3 3 3 3 3 3 3 3 3 3 3 3 3 3 3 3 4 4 4 4 4 4 5 5 6 6 6 7 7 7 7 7 6 6 7 7 8 7 8 8 8 8 8 8 8 9
2 2 2 2 2 2 2 2 2 2 2 3 3 3 3 3 3 3 3 4 4 4 4 4 5 6 6 7 7 7 7 7 7 7 6 6 7 7 7 7 7 7 7 8 8 8 8
2 2 2 1 1 1 1 1 1 1 1 2 2 2 2 2 3 3 3 3 4 4 4 4 5 6 6 6 7 7 7 7 7 7 7 6 6 7 7 7 7 7 7 7 8 8 8
2 2 1 1 2 1 1 1 1 1 1 1 2 1 2 2 2 3 2 3 4 4 4 4 5 5 7 6 7 7 7 7 7 6 6 6 6 6 6 6 7 7 7 7 9 8 8
1 1 1 1 1 1 1 1 1 1 2 1 1 1 1 1 1 1 1 2 3 3 4 4 5 5 6 7 6 7 7 7 6 7 6 6 5 6 6 6 7 7 7 7 9 9 9
1 0 1 1 1 1 1 1 1 1 1 1 1 1 1 1 1 1 1 2 3 4 3 5 5 4 5 5 6 6 6 6 6 6 6 6 6 6 6 5 6 7 7 8 8 8 8
-0 -0 -0 -0 0 1 1 1 1 1 1 1 0 0 0 0 0 0 1 1 2 2 3 4 4 5 3 3 4 5 5 6 6 6 6 5 3 5 5 6 6 6 7 7 8 7 7
-0 -0 -0 -1 -1 1 1 1 1 -0 -0 0 0 -0 -0 0 -0 -0 -0 -0 -1 -0 3 4 3 3 4 3 4 5 4 5 4 5 5 4 4 6 5 5 6 6 6 6 6 7 6
-1 -1 -1 -1 -0 -1 -0 -0 0 0 -1 -0 -1 -1 -2 -3 -2 -2 -2 -1 -2 0 0 3 4 4 4 3 3 5 3 4 3 3 3 3 4 5 5 5 5 5 5 5 5 5 5
-2 -2 -1 -1 -1 -0 -0 0 -0 -2 -1 -0 -0 -2 -3 -2 -2 -1 -1 -1 -1 -0 -1 1 3 4 4 2 2 5 4 3 1 2 3 3 3 5 5 5 5 4 4 4 4 4 4
-3 -3 -3 -2 -2 -2 -1 -1 -1 -0 -1 -1 -2 -2 -2 -3 -2 -2 -2 -1 0 -1 -4 2 1 3 3 3 2 3 4 2 2 2 2 3 3 3 4 4 3 3 3 3 3 3 3
-4 -4 -4 -4 -4 -4 -3 -2 -2 -1 -1 -1 -2 -2 -2 -2 -3 -3 -2 -1 -1 -1 -3 2 2 2 2 2 1 1 2 2 2 2 2 2 2 2 3 3 3 2 3 2 3 3 1
-5 -5 -5 -5 -5 -5 -5 -4 -3 -2 -2 -1 -2 -2 -2 -2 -2 -2 -2 -3 -3 -3 1 2 2 2 3 2 2 0 2 2 2 1 1 3 3 4 3 3 2 2 2 1 1 0 -0
-6 -5 -6 -6 -6 -6 -5 -5 -4 -4 -3 -3 -2 -2 -3 -2 -2 -3 -4 -4 -4 -1 0 2 1 1 1 1 1 1 1 1 2 2 2 2 3 4 3 3 2 2 2 1 0 -0 0
-6 -6 -6 -6 -7 -6 -6 -5 -5 -5 -4 -4 -4 -4 -3 -3 -4 -5 -5 -4 -3 -2 -1 0 1 1 1 1 1 1 1 1 2 2 2 2 3 2 3 2 2 2 2 2 2 2 0
-6 -6 -6 -6 -7 -7 -6 -6 -6 -6 -6 -5 -5 -5 -4 -5 -5 -6 -6 -4 -2 -2 -1 -0 1 1 1 1 1 1 1 1 1 2 1 1 1 3 2 2 2 1 2 2 2 -1 -1
-7 -7 -7 -7 -7 -7 -6 -6 -6 -7 -7 -7 -6 -6 -5 -6 -6 -6 -5 -4 -3 -2 -2 -1 -0 0 1 1 1 1 0 1 1 1 1 1 0 0 1 1 1 1 2 1 1 1 -1
-8 -7 -7 -7 -7 -7 -7 -6 -6 -6 -7 -7 -7 -6 -6 -7 -7 -6 -5 -4 -3 -3 -3 -3 -2 -1 -1 0 0 0 1 0 0 0 -0 -0 -1 -1 -0 1 1 1 1 1 1 1 1
-8 -8 -8 -7 -7 -7 -7 -7 -7 -7 -7 -8 -8 -8 -7 -7 -7 -6 -5 -4 -4 -3 -4 -4 -3 -2 -1 -1 -1 -0 -0 0 -1 -1 -1 -1 -1 -1 -1 -0 1 0 1 0 -0 -0 0
-9 -8 -8 -8 -7 -7 -7 -7 -7 -8 -8 -8 -9 -8 -8 -8 -6 -7 -6 -5 -5 -4 -5 -4 -4 -3 -2 -2 -1 -2 -2 -1 -1 -2 -2 -2 -2 -2 -3 -1 -2 -2 -1 -1 -2 -1 -1
-9 -9 -9 -8 -8 -7 -7 -7 -7 -8 -9 -9 -8 -7 -8 -8 -7 -7 -7 -6 -5 -5 -5 -5 -4 -3 -3 -3 -3 -2 -2 -2 -2 -2 -2 -2 -3 -3 -2 -3 -3 -3 -2 -2 -2 -2 -2
-10 -9 -9 -9 -8 -8 -7 -7 -7 -7 -8 -7 -8 -8 -8 -8 -7 -7 -7 -6 -6 -5 -5 -5 -5 -4 -4 -4 -4 -3 -3 -3 -3 -3 -3 -3 -3 -4 -4 -4 -4 -3 -3 -3 -2 -2 -2
-10 -9 -9 -9 -9 -8 -8 -7 -8 -9 -8 -8 -7 -8 -8 -8 -8 -7 -6 -6 -6 -6 -6 -6 -6 -5 -5 -4 -4 -4 -4 -4 -3 -3 -3 -4 -4 -4 -4 -4 -4 -4 -3 -3 -2 -2 -2
-11 -10 -10 -9 -9 -9 -8 -8 -8 -9 -8 -8 -7 -8 -8 -8 -8 -7 -6 -6 -6 -6 -7 -6 -6 -5 -5 -5 -5 -4 -4 -4 -4 -4 -4 -4 -4 -5 -5 -5 -6 -4 -3 -2 -2 -2 -2
-11 -11 -11 -11 -11 -11 -10 -10 -10 -9 -8 -8 -8 -8 -8 -8 -8 -8 -7 -7 -6 -6 -6 -6 -6 -6 -5 -6 -6 -6 -5 -5 -4 -3 -3 -4 -6 -6 -6 -6 -5 -4 -2 -2 -3 -3 -2
-13 -13 -13 -13 -12 -12 -12 -11 -11 -10 -9 -8 -8 -8 -8 -8 -8 -8 -7 -7 -7 -7 -7 -7 -6 -6 -6 -7 -7 -7 -6 -5 -4 -3 -3 -4 -5 -6 -6 -6 -5 -2 -2 -3 -3 -2 -2
-13 -13 -13 -13 -13 -12 -12 -12 -11 -10 -9 -8 -8 -8 -9 -8 -8 -8 -7 -7 -7 -7 -6 -6 -6 -7 -7 -7 -7 -7 -7 -6 -5 -4 -4 -5 -5 -6 -6 -6 -5 -4 -3 -3 -3 -3 -3
-14 -14 -14 -13 -13 -13 -13 -12 -12 -10 -9 -8 -8 -9 -9 -9 -8 -7 -7 -8 -8 -7 -6 -6 -7 -7 -7 -7 -7 -7 -7 -5 -5 -4 -4 -5 -5 -5 -6 -6 -6 -4 -3 -4 -4 -4 -4
-14 -14 -14 -13 -13 -13 -12 -12 -11 -9 -9 -9 -9 -9 -9 -8 -8 -8 -7 -7 -7 -7 -7 -7 -7 -7 -7 -7 -7 -7 -6 -6 -5 -5 -4 -5 -4 -4 -4 -4 -3 -4 -3 -4 -4 -5 -4

GFSGBSN_700_temp_171.txt.gz
Temp
3 3 3 3 3 3 3 3 3 3 3 3 3 4 4 4 4 4 4 4 5 4 5 5 5 5 6 6 6 7 7 7 8 7 8 8 8 7 7 7 7 7 7 7 8 8 8
2 3 3 3 2 3 3 3 3 3 3 3 4 4 4 4 4 4 4 4 4 4 4 5 5 5 6 6 6 7 7 6 7 7 7 8 8 7 7 7 7 7 7 8 8 8 7
2 2 2 3 2 2 2 3 3 3 3 3 3 4 4 4 4 4 4 4 4 4 4 4 5 5 6 5 6 7 7 8 7 7 7 7 7 7 7 7 7 7 7 8 8 8 8
2 1 2 2 2 2 2 2 2 2 2 3 3 3 4 4 4 4 4 4 5 4 4 4 4 5 6 6 6 7 7 7 7 7 7 6 7 7 7 6 6 6 7 7 8 8 7
2 1 1 1 1 1 1 2 2 1 1 2 2 2 2 2 3 3 4 4 4 4 4 4 4 4 6 6 6 6 6 6 6 6 6 6 6 7 7 6 6 6 6 6 7 7 7
1 1 1 1 1 1 1 1 1 1 1 1 1 1 1 2 2 2 3 3 3 3 3 3 4 4 5 6 6 6 6 6 6 6 6 6 6 6 6 6 6 6 5 5 5 6 6
1 1 1 1 1 1 0 0 0 0 0 0 0 1 1 0 0 1 2 1 1 1 3 4 4 5 5 5 5 6 6 6 6 6 6 5 6 6 6 4 4 4 4 4 5 6 5
-0 0 -0 0 0 0 1 0 1 0 -0 -0 0 0 -1 0 0 0 0 1 1 1 2 3 4 4 6 5 6 6 5 5 6 6 5 5 5 6 5 5 4 4 4 4 4 5 5
-1 -1 -1 -1 -1 -1 -2 -1 -1 -0 -1 -1 -1 0 -1 -0 -0 -0 -1 -0 0 0 1 4 4 5 5 5 7 8 4 4 3 4 5 4 4 5 5 5 3 4 3 4 4 4 5
-2 -2 -2 -1 -1 -1 -1 -1 -1 -1 -1 -0 -1 -0 -0 -1 -1 -0 -1 -1 -1 1 0 3 4 4 5 6 5 6 5 4 2 3 3 3 3 4 4 4 3 3 3 3 3 4 4
-2 -2 -2 -2 -2 -2 -2 -2 -2 -1 -1 -0 -0 -0 -0 0 -0 -0 -1 -1 -1 -1 -2 3 2 3 4 4 4 4 4 3 3 3 2 3 2 3 3 3 3 3 3 3 3 3 3
-3 -3 -3 -3 -2 -2 -2 -2 -2 -2 -2 -1 -1 -1 -1 -1 -1 -2 -1 -2 -2 -2 -3 2 2 3 3 3 3 3 2 2 2 2 2 2 2 2 2 3 2 2 2 2 2 2 -0
-4 -4 -3 -3 -3 -3 -3 -3 -3 -3 -3 -2 -2 -1 -1 -1 -1 -2 -2 -3 -3 -4 -0 1 1 1 1 1 2 2 1 1 1 1 1 2 2 2 2 2 2 2 1 1 0 -1 -1
-4 -4 -4 -4 -4 -4 -4 -4 -4 -4 -4 -3 -3 -2 -2 -2 -2 -3 -3 -3 -4 -2 -2 -0 -0 -0 0 1 1 1 1 0 0 0 0 1 2 3 2 2 2 2 2 1 -0 -1 -1
-5 -5 -5 -5 -5 -5 -6 -5 -6 -5 -5 -5 -4 -3 -3 -3 -3 -3 -4 -4 -3 -3 -2 -1 0 -1 0 1 1 0 1 1 1 1 -0 1 1 2 2 2 2 2 2 2 2 -0 -2
-6 -6 -6 -6 -6 -6 -7 -6 -7 -6 -6 -6 -5 -4 -4 -4 -4 -4 -6 -4 -3 -3 -3 -3 -2 -2 -1 -0 -0 0 0 1 1 1 0 1 1 1 1 2 2 2 2 1 1 -1 -2
-7 -7 -7 -7 -7 -7 -7 -7 -7 -7 -7 -6 -6 -5 -5 -5 -5 -6 -6 -7 -4 -3 -4 -4 -3 -3 -2 -2 -1 -1 -0 0 0 1 1 1 0 1 1 1 1 1 1 1 1 1 -3
-7 -7 -7 -7 -7 -7 -8 -8 -7 -6 -7 -7 -7 -7 -6 -6 -6 -6 -6 -5 -4 -4 -4 -4 -4 -4 -3 -3 -2 -2 -2 -1 -1 -0 -0 0 -0 -0 0 1 0 1 0 -0 -1 -1 -1
-8 -8 -8 -7 -7 -8 -8 -8 -8 -8 -7 -7 -8 -7 -7 -7 -7 -6 -5 -5 -5 -4 -5 -5 -5 -4 -4 -3 -3 -2 -1 -2 -3 -2 -1 -1 -1 -1 -1 -0 -0 -0 -1 -1 -2 -2 -2
-9 -9 -8 -8 -8 -8 -8 -8 -8 -8 -8 -9 -8 -8 -8 -8 -7 -7 -7 -6 -6 -5 -5 -6 -5 -5 -4 -4 -3 -2 -2 -2 -3 -3 -2 -2 -2 -1 -2 -1 -1 -1 -1 -2 -3 -3 -3
-9 -9 -9 -9 -9 -8 -8 -8 -8 -8 -8 -9 -8 -8 -8 -8 -8 -7 -8 -7 -6 -6 -6 -6 -5 -5 -5 -5 -4 -3 -2 -2 -3 -3 -4 -3 -2 -3 -2 -2 -2 -2 -2 -3 -3 -3 -4
-10 -10 -9 -9 -9 -9 -9 -9 -9 -9 -9 -9 -9 -9 -9 -8 -7 -7 -7 -7 -6 -7 -7 -6 -7 -5 -5 -5 -4 -4 -3 -4 -3 -3 -3 -3 -3 -3 -3 -3 -3 -3 -3 -3 -3 -3 -3
-10 -10 -10 -10 -10 -9 -9 -9 -9 -9 -9 -8 -8 -9 -9 -8 -8 -7 -7 -7 -6 -7 -7 -7 -7 -7 -6 -5 -5 -4 -4 -5 -4 -4 -4 -4 -4 -3 -4 -3 -4 -4 -3 -2 -2 -3 -3
-11 -11 -10 -10 -10 -10 -9 -9 -9 -9 -9 -9 -9 -10 -10 -9 -8 -7 -7 -7 -7 -7 -7 -7 -7 -7 -6 -6 -5 -6 -6 -6 -5 -5 -4 -5 -5 -4 -5 -5 -6 -4 -3 -3 -3 -3 -4
-12 -12 -11 -11 -11 -10 -10 -10 -9 -9 -9 -9 -9 -10 -10 -10 -8 -9 -8 -7 -7 -8 -8 -8 -7 -7 -7 -7 -7 -7 -7 -7 -6 -5 -5 -5 -5 -5 -5 -5 -4 -4 -3 -4 -4 -4 -3
-13 -12 -12 -11 -11 -11 -10 -10 -10 -10 -9 -9 -9 -10 -11 -10 -8 -8 -8 -8 -8 -7 -8 -8 -7 -7 -7 -7 -7 -7 -7 -6 -5 -5 -4 -5 -5 -5 -6 -6 -6 -4 -3 -4 -4 -4 -3
-13 -13 -12 -12 -11 -11 -11 -10 -10 -10 -10 -9 -8 -10 -10 -10 -9 -9 -8 -8 -8 -8 -8 -8 -7 -8 -7 -7 -8 -7 -7 -7 -6 -6 -5 -5 -5 -6 -7 -6 -6 -4 -4 -4 -5 -4 -4
-13 -13 -13 -12 -12 -11 -11 -11 -11 -11 -11 -10 -9 -10 -10 -10 -9 -9 -9 -8 -8 -8 -8 -8 -8 -8 -8 -8 -8 -8 -7 -7 -6 -6 -6 -6 -5 -5 -7 -7 -6 -4 -4 -4 -4 -4 -4
-13 -13 -13 -12 -12 -11 -11 -11 -12 -12 -12 -12 -10 -10 -11 -11 -10 -9 -9 -9 -8 -8 -8 -8 -8 -8 -8 -8 -8 -8 -7 -7 -7 -7 -6 -6 -6 -6 -5 -5 -5 -5 -4 -5 -5 -4 -4